| time (UTC) | temp F | wind direction | speed MPH | gust MPH | rain 1hr in | rain 24hr in | rain mn in | humidity % | barometer mb |
| 20260831214503 | 66 | 21 | 1.0 | 4.0 | 0.00 | 0.00 | 0.00 | 71 | 999.7 |
| 20260831211503 | 66 | 38 | 0.0 | 3.0 | 0.00 | 0.00 | 0.00 | 71 | 1000.0 |
| 20260831210003 | 66 | 70 | 3.0 | 5.0 | 0.00 | 0.00 | 0.00 | 69 | 1000.0 |
| 20260831205002 | 66 | 65 | 3.0 | 4.0 | 0.00 | 0.00 | 0.00 | 70 | 1000.0 |
| 20260831203503 | 66 | 113 | 2.0 | 3.0 | 0.00 | 0.00 | 0.00 | 69 | 999.7 |
| 20260831202003 | 66 | 40 | 0.0 | 4.0 | 0.00 | 0.00 | 0.00 | 70 | 1000.0 |
| 20260831195003 | 66 | 54 | 0.0 | 1.0 | 0.00 | 0.00 | 0.00 | 70 | 1000.0 |
| 20260831194003 | 65 | 55 | 0.0 | 3.0 | 0.00 | 0.00 | 0.00 | 72 | 1000.0 |
| 20260831192503 | 64 | 194 | 0.0 | 1.0 | 0.00 | 0.00 | 0.00 | 76 | 1000.3 |
| 20260831191003 | 62 | 69 | 0.0 | 3.0 | 0.00 | 0.00 | 0.00 | 77 | 1000.3 |
| 20260831184003 | 59 | 34 | 0.0 | 2.0 | 0.00 | 0.00 | 0.00 | 82 | 1000.7 |
| 20260831182504 | 58 | 30 | 0.0 | 0.0 | 0.00 | 0.00 | 0.00 | 83 | 1000.7 |
| 20260831175504 | 56 | 34 | 0.0 | 0.0 | 0.00 | 0.00 | 0.00 | 85 | 1000.7 |
| 20260831174503 | 56 | 345 | 0.0 | 0.0 | 0.00 | 0.00 | 0.00 | 86 | 1000.7 |
| 20260831173004 | 55 | 48 | 0.0 | 0.0 | 0.00 | 0.00 | 0.00 | 86 | 1000.7 |
| 20260831170004 | 54 | 26 | 0.0 | 0.0 | 0.00 | 0.00 | 0.00 | 88 | 1000.3 |
| 20260831163004 | 53 | 25 | 0.0 | 0.0 | 0.00 | 0.00 | 0.00 | 89 | 1000.3 |
| 20260831161503 | 53 | 335 | 0.0 | 0.0 | 0.00 | 0.00 | 0.00 | 89 | 1000.3 |
| 20260831160004 | 53 | 350 | 0.0 | 0.0 | 0.00 | 0.00 | 0.00 | 90 | 1000.3 |
| 20260831154503 | 53 | 346 | 0.0 | 0.0 | 0.00 | 0.00 | 0.00 | 90 | 1000.0 |
| 20260831153004 | 53 | 43 | 0.0 | 0.0 | 0.00 | 0.00 | 0.00 | 90 | 1000.0 |
| 20260831150005 | 52 | 6 | 0.0 | 0.0 | 0.00 | 0.00 | 0.00 | 90 | 999.7 |
| 20260831144504 | 52 | 1 | 0.0 | 0.0 | 0.00 | 0.00 | 0.00 | 90 | 999.7 |
| 20260831143004 | 52 | 16 | 0.0 | 0.0 | 0.00 | 0.00 | 0.00 | 90 | 999.3 |
| 20260831141503 | 52 | 37 | 0.0 | 0.0 | 0.00 | 0.00 | 0.00 | 90 | 999.3 |
| 20260831140004 | 52 | 0 | 0.0 | 0.0 | 0.00 | 0.00 | 0.00 | 90 | 999.0 |
| 20260831133005 | 52 | 338 | 0.0 | 0.0 | 0.00 | 0.00 | 0.00 | 90 | 998.6 |
| 20260831131505 | 52 | 4 | 0.0 | 0.0 | 0.00 | 0.00 | 0.00 | 89 | 998.6 |
| 20260831130004 | 52 | 8 | 0.0 | 0.0 | 0.00 | 0.00 | 0.00 | 89 | 999.0 |
| 20260831124504 | 52 | 20 | 0.0 | 0.0 | 0.00 | 0.00 | 0.00 | 88 | 998.6 |
| 20260831123005 | 51 | 2 | 0.0 | 0.0 | 0.00 | 0.00 | 0.00 | 88 | 998.6 |
| 20260831121504 | 51 | 357 | 0.0 | 0.0 | 0.00 | 0.00 | 0.00 | 87 | 998.6 |
| 20260831120005 | 52 | 31 | 0.0 | 0.0 | 0.00 | 0.00 | 0.00 | 87 | 998.6 |
| 20260831114504 | 52 | 1 | 0.0 | 0.0 | 0.00 | 0.00 | 0.00 | 89 | 998.6 |
| 20260831113004 | 52 | 4 | 0.0 | 0.0 | 0.00 | 0.00 | 0.00 | 88 | 998.6 |
| 20260831111504 | 51 | 344 | 0.0 | 0.0 | 0.00 | 0.00 | 0.00 | 88 | 998.6 |
| 20260831110005 | 51 | 349 | 0.0 | 0.0 | 0.00 | 0.00 | 0.00 | 87 | 998.6 |
| 20260831104504 | 51 | 353 | 0.0 | 0.0 | 0.00 | 0.00 | 0.00 | 88 | 998.6 |
| 20260831103006 | 51 | 351 | 0.0 | 0.0 | 0.00 | 0.00 | 0.00 | 87 | 998.6 |
| 20260831101505 | 51 | 354 | 0.0 | 0.0 | 0.00 | 0.00 | 0.00 | 87 | 998.3 |
| 20260831100004 | 51 | 357 | 0.0 | 0.0 | 0.00 | 0.00 | 0.00 | 87 | 998.3 |
| 20260831093004 | 51 | 358 | 0.0 | 0.0 | 0.00 | 0.00 | 0.00 | 87 | 998.3 |
| 20260831091505 | 51 | 342 | 0.0 | 0.0 | 0.00 | 0.00 | 0.00 | 87 | 998.3 |
| 20260831090005 | 52 | 356 | 0.0 | 0.0 | 0.00 | 0.00 | 0.00 | 87 | 998.3 |
| 20260831084503 | 52 | 9 | 0.0 | 0.0 | 0.00 | 0.00 | 0.00 | 87 | 998.3 |
| 20260831083003 | 52 | 331 | 0.0 | 0.0 | 0.00 | 0.00 | 0.00 | 86 | 998.6 |
| 20260831081504 | 52 | 3 | 0.0 | 0.0 | 0.00 | 0.00 | 0.00 | 87 | 998.6 |
| 20260831080504 | 52 | 9 | 0.0 | 0.0 | 0.00 | 0.00 | 0.00 | 86 | 998.6 |
| 20260831075003 | 53 | 353 | 0.0 | 0.0 | 0.00 | 0.00 | 0.00 | 86 | 998.6 |
| 20260831073502 | 53 | 359 | 0.0 | 0.0 | 0.00 | 0.00 | 0.00 | 86 | 998.6 |
| 20260831072004 | 53 | 4 | 0.0 | 0.0 | 0.00 | 0.00 | 0.00 | 86 | 998.6 |
| 20260831071003 | 53 | 351 | 0.0 | 0.0 | 0.00 | 0.00 | 0.00 | 84 | 998.6 |
| 20260831064003 | 54 | 14 | 0.0 | 0.0 | 0.00 | 0.00 | 0.00 | 84 | 998.3 |
| 20260831062503 | 54 | 27 | 0.0 | 0.0 | 0.00 | 0.00 | 0.00 | 83 | 998.3 |
| 20260831061004 | 55 | 22 | 0.0 | 0.0 | 0.00 | 0.00 | 0.00 | 83 | 998.6 |
| 20260831055503 | 55 | 3 | 0.0 | 0.0 | 0.00 | 0.00 | 0.00 | 82 | 998.3 |
| 20260831054002 | 56 | 9 | 0.0 | 0.0 | 0.00 | 0.00 | 0.00 | 82 | 998.3 |
| 20260831052506 | 56 | 30 | 0.0 | 0.0 | 0.00 | 0.00 | 0.00 | 81 | 998.3 |
| 20260831051003 | 57 | 29 | 0.0 | 0.0 | 0.00 | 0.00 | 0.00 | 80 | 998.3 |
| 20260831045505 | 58 | 0 | 0.0 | 0.0 | 0.00 | 0.00 | 0.00 | 79 | 998.3 |
| 20260831044503 | 58 | 22 | 0.0 | 0.0 | 0.00 | 0.00 | 0.00 | 78 | 998.3 |
| 20260831043004 | 59 | 25 | 0.0 | 0.0 | 0.00 | 0.00 | 0.00 | 77 | 998.3 |
| 20260831040004 | 61 | 8 | 0.0 | 0.0 | 0.00 | 0.00 | 0.00 | 74 | 997.6 |
| 20260831033003 | 64 | 0 | 0.0 | 0.0 | 0.00 | 0.00 | 0.00 | 67 | 997.6 |
| 20260831031504 | 65 | 26 | 0.0 | 0.0 | 0.00 | 0.00 | 0.00 | 65 | 997.6 |
| 20260831024503 | 67 | 346 | 0.0 | 0.0 | 0.00 | 0.00 | 0.00 | 62 | 997.6 |
| 20260831021504 | 68 | 335 | 0.0 | 0.0 | 0.00 | 0.00 | 0.00 | 60 | 997.6 |
| 20260831013004 | 70 | 311 | 0.0 | 0.0 | 0.00 | 0.00 | 0.00 | 56 | 998.0 |
| 20260831011504 | 70 | 323 | 0.0 | 0.0 | 0.00 | 0.00 | 0.00 | 55 | 998.0 |
| 20260831010004 | 71 | 341 | 0.0 | 0.0 | 0.00 | 0.00 | 0.00 | 55 | 998.3 |
| 20260831004504 | 71 | 337 | 0.0 | 0.0 | 0.00 | 0.00 | 0.00 | 55 | 998.0 |
| 20260831003004 | 72 | 325 | 0.0 | 0.0 | 0.00 | 0.00 | 0.00 | 53 | 998.0 |
| 20260831001503 | 73 | 344 | 0.0 | 0.0 | 0.00 | 0.00 | 0.00 | 53 | 998.3 |
| 20260831000004 | 73 | 251 | 1.0 | 1.0 | 0.00 | 0.00 | 0.00 | 52 | 998.3 |
| 20260830235003 | 74 | 329 | 0.0 | 0.0 | 0.00 | 0.00 | 0.00 | 51 | 998.3 |
| 20260830232502 | 74 | 351 | 0.0 | 1.0 | 0.00 | 0.00 | 0.00 | 52 | 998.3 |
| 20260830225504 | 74 | 340 | 0.0 | 0.0 | 0.00 | 0.00 | 0.00 | 54 | 998.6 |
| 20260830224003 | 75 | 28 | 0.0 | 0.0 | 0.00 | 0.00 | 0.00 | 52 | 998.6 |
| 20260830221003 | 75 | 59 | 3.0 | 3.0 | 0.00 | 0.00 | 0.00 | 52 | 999.0 |